Time,TemperatureF,DewpointF,PressureIn,WindDirection,WindDirectionDegrees,WindSpeedMPH,WindSpeedGustMPH,Humidity,HourlyPrecipIn,Conditions,Clouds,dailyrainin,SoftwareType,DateUTC
2013-10-09 00:12:00,39.4,37.0,30.32,North,360,0.0,3.0,90,0.00,,,0.00,weatherlink.com 1.10,2013-10-09 04:12:00,
2013-10-09 00:27:00,39.1,37.0,30.32,North,360,0.0,2.0,93,0.00,,,0.00,weatherlink.com 1.10,2013-10-09 04:27:00,
2013-10-09 00:42:00,39.3,38.0,30.32,North,360,0.0,1.0,93,0.00,,,0.00,weatherlink.com 1.10,2013-10-09 04:42:00,
2013-10-09 00:57:00,39.5,37.0,30.31,North,360,0.0,2.0,92,0.00,,,0.00,weatherlink.com 1.10,2013-10-09 04:57:00,
2013-10-09 01:12:00,40.0,38.0,30.32,North,360,0.0,3.0,91,0.00,,,0.00,weatherlink.com 1.10,2013-10-09 05:12:00,
2013-10-09 01:27:00,39.9,38.0,30.32,North,360,0.0,1.0,91,0.00,,,0.00,weatherlink.com 1.10,2013-10-09 05:27:00,
2013-10-09 01:42:00,39.6,37.0,30.32,North,360,0.0,2.0,91,0.00,,,0.00,weatherlink.com 1.10,2013-10-09 05:42:00,
2013-10-09 01:57:00,39.1,37.0,30.32,North,360,0.0,1.0,92,0.00,,,0.00,weatherlink.com 1.10,2013-10-09 05:57:00,
2013-10-09 02:12:00,38.8,37.0,30.32,North,360,0.0,1.0,93,0.00,,,0.00,weatherlink.com 1.10,2013-10-09 06:12:00,
2013-10-09 02:27:00,39.6,38.0,30.32,North,360,0.0,2.0,92,0.00,,,0.00,weatherlink.com 1.10,2013-10-09 06:27:00,
2013-10-09 02:42:00,40.6,38.0,30.32,North,360,0.0,2.0,91,0.00,,,0.00,weatherlink.com 1.10,2013-10-09 06:42:00,
2013-10-09 02:57:00,40.8,38.0,30.32,North,360,0.0,1.0,88,0.00,,,0.00,weatherlink.com 1.10,2013-10-09 06:57:00,
2013-10-09 03:12:00,40.0,37.0,30.32,North,360,0.0,1.0,89,0.00,,,0.00,weatherlink.com 1.10,2013-10-09 07:12:00,
2013-10-09 03:27:00,38.9,36.0,30.32,North,360,0.0,0.0,90,0.00,,,0.00,weatherlink.com 1.10,2013-10-09 07:27:00,
2013-10-09 03:42:00,38.7,36.0,30.33,North,360,0.0,1.0,90,0.00,,,0.00,weatherlink.com 1.10,2013-10-09 07:42:00,
2013-10-09 03:57:00,38.2,36.0,30.33,North,360,0.0,2.0,92,0.00,,,0.00,weatherlink.com 1.10,2013-10-09 07:57:00,
2013-10-09 04:12:00,38.0,36.0,30.33,North,360,0.0,1.0,93,0.00,,,0.00,weatherlink.com 1.10,2013-10-09 08:12:00,
2013-10-09 04:27:00,37.8,36.0,30.34,North,360,0.0,2.0,93,0.00,,,0.00,weatherlink.com 1.10,2013-10-09 08:27:00,
2013-10-09 04:42:00,37.9,36.0,30.34,North,360,0.0,0.0,93,0.00,,,0.00,weatherlink.com 1.10,2013-10-09 08:42:00,
2013-10-09 04:57:00,37.9,36.0,30.34,North,360,0.0,1.0,92,0.00,,,0.00,weatherlink.com 1.10,2013-10-09 08:57:00,
2013-10-09 05:12:00,39.4,34.0,30.34,NNE,28,2.0,4.0,80,0.00,,,0.00,weatherlink.com 1.10,2013-10-09 09:12:00,
2013-10-09 05:27:00,41.0,33.0,30.35,North,5,3.0,4.0,73,0.00,,,0.00,weatherlink.com 1.10,2013-10-09 09:27:00,
2013-10-09 05:42:00,42.6,34.0,30.35,SW,217,2.0,3.0,71,0.00,,,0.00,weatherlink.com 1.10,2013-10-09 09:42:00,
2013-10-09 05:57:00,42.5,34.0,30.35,ENE,71,0.0,3.0,71,0.00,,,0.00,weatherlink.com 1.10,2013-10-09 09:57:00,
2013-10-09 06:12:00,42.5,34.0,30.35,WSW,248,2.0,3.0,71,0.00,,,0.00,weatherlink.com 1.10,2013-10-09 10:12:00,
2013-10-09 06:27:00,41.5,34.0,30.36,SW,220,1.0,4.0,74,0.00,,,0.00,weatherlink.com 1.10,2013-10-09 10:27:00,
2013-10-09 06:42:00,40.4,34.0,30.36,SW,219,0.0,1.0,77,0.00,,,0.00,weatherlink.com 1.10,2013-10-09 10:42:00,
2013-10-09 06:57:00,39.3,34.0,30.36,SW,219,0.0,2.0,80,0.00,,,0.00,weatherlink.com 1.10,2013-10-09 10:57:00,
2013-10-09 07:12:00,38.2,34.0,30.36,SW,219,0.0,1.0,83,0.00,,,0.00,weatherlink.com 1.10,2013-10-09 11:12:00,
2013-10-09 07:27:00,37.8,34.0,30.36,SW,219,0.0,2.0,86,0.00,,,0.00,weatherlink.com 1.10,2013-10-09 11:27:00,
2013-10-09 07:42:00,38.1,35.0,30.37,SW,219,0.0,0.0,87,0.00,,,0.00,weatherlink.com 1.10,2013-10-09 11:42:00,
2013-10-09 07:57:00,38.4,35.0,30.38,SW,219,1.0,2.0,88,0.00,,,0.00,weatherlink.com 1.10,2013-10-09 11:57:00,
2013-10-09 08:13:00,39.1,36.0,30.38,SW,221,1.0,3.0,88,0.00,,,0.00,weatherlink.com 1.10,2013-10-09 12:13:00,
2013-10-09 08:28:00,40.9,38.0,30.39,West,269,1.0,5.0,88,0.00,,,0.00,weatherlink.com 1.10,2013-10-09 12:28:00,
2013-10-09 08:43:00,42.9,38.0,30.39,WSW,238,1.0,4.0,82,0.00,,,0.00,weatherlink.com 1.10,2013-10-09 12:43:00,
2013-10-09 08:58:00,43.7,38.0,30.39,WSW,242,2.0,4.0,80,0.00,,,0.00,weatherlink.com 1.10,2013-10-09 12:58:00,
2013-10-09 09:13:00,44.3,39.0,30.39,WSW,240,2.0,3.0,81,0.00,,,0.00,weatherlink.com 1.10,2013-10-09 13:13:00,
2013-10-09 09:28:00,45.6,38.0,30.39,SSW,208,5.0,6.0,75,0.00,,,0.00,weatherlink.com 1.10,2013-10-09 13:28:00,
2013-10-09 09:43:00,48.1,38.0,30.41,WSW,242,2.0,7.0,69,0.00,,,0.00,weatherlink.com 1.10,2013-10-09 13:43:00,
2013-10-09 09:58:00,49.8,38.0,30.41,NNW,340,2.0,8.0,65,0.00,,,0.00,weatherlink.com 1.10,2013-10-09 13:58:00,
2013-10-09 10:13:00,50.4,39.0,30.41,SSW,199,2.0,8.0,64,0.00,,,0.00,weatherlink.com 1.10,2013-10-09 14:13:00,
2013-10-09 10:28:00,50.3,37.0,30.40,SSW,197,3.0,8.0,60,0.00,,,0.00,weatherlink.com 1.10,2013-10-09 14:28:00,
2013-10-09 10:43:00,51.6,35.0,30.39,South,177,4.0,6.0,53,0.00,,,0.00,weatherlink.com 1.10,2013-10-09 14:43:00,
2013-10-09 10:58:00,52.5,36.0,30.39,SSE,165,2.0,9.0,53,0.00,,,0.00,weatherlink.com 1.10,2013-10-09 14:58:00,
2013-10-09 11:13:00,53.3,34.0,30.38,SSW,210,4.0,7.0,49,0.00,,,0.00,weatherlink.com 1.10,2013-10-09 15:13:00,
2013-10-09 11:28:00,53.5,36.0,30.38,SW,229,2.0,8.0,51,0.00,,,0.00,weatherlink.com 1.10,2013-10-09 15:28:00,
2013-10-09 11:43:00,54.5,36.0,30.38,SSW,204,2.0,5.0,51,0.00,,,0.00,weatherlink.com 1.10,2013-10-09 15:43:00,
2013-10-09 11:58:00,54.1,38.0,30.38,SSW,211,3.0,8.0,55,0.00,,,0.00,weatherlink.com 1.10,2013-10-09 15:58:00,
2013-10-09 12:13:00,54.1,36.0,30.37,SE,142,1.0,7.0,50,0.00,,,0.00,weatherlink.com 1.10,2013-10-09 16:13:00,
2013-10-09 12:28:00,55.0,37.0,30.37,SE,141,1.0,12.0,52,0.00,,,0.00,weatherlink.com 1.10,2013-10-09 16:28:00,
2013-10-09 12:43:00,54.6,38.0,30.37,West,259,3.0,7.0,53,0.00,,,0.00,weatherlink.com 1.10,2013-10-09 16:43:00,
2013-10-09 12:58:00,55.0,37.0,30.36,SSW,210,1.0,8.0,52,0.00,,,0.00,weatherlink.com 1.10,2013-10-09 16:58:00,
2013-10-09 13:13:00,55.0,38.0,30.36,SW,227,3.0,6.0,53,0.00,,,0.00,weatherlink.com 1.10,2013-10-09 17:13:00,
2013-10-09 13:28:00,55.6,37.0,30.35,South,182,2.0,9.0,50,0.00,,,0.00,weatherlink.com 1.10,2013-10-09 17:28:00,
2013-10-09 13:43:00,56.2,37.0,30.34,South,170,0.0,7.0,49,0.00,,,0.00,weatherlink.com 1.10,2013-10-09 17:43:00,
2013-10-09 13:58:00,57.2,37.0,30.34,South,169,1.0,6.0,47,0.00,,,0.00,weatherlink.com 1.10,2013-10-09 17:58:00,
2013-10-09 14:13:00,57.1,38.0,30.33,SSW,213,1.0,7.0,50,0.00,,,0.00,weatherlink.com 1.10,2013-10-09 18:13:00,
2013-10-09 14:28:00,57.2,35.0,30.33,South,178,1.0,5.0,43,0.00,,,0.00,weatherlink.com 1.10,2013-10-09 18:28:00,
2013-10-09 14:43:00,57.7,36.0,30.33,SSW,194,1.0,5.0,45,0.00,,,0.00,weatherlink.com 1.10,2013-10-09 18:43:00,
2013-10-09 14:58:00,57.4,38.0,30.33,South,184,1.0,9.0,48,0.00,,,0.00,weatherlink.com 1.10,2013-10-09 18:58:00,
2013-10-09 15:13:00,57.2,37.0,30.32,SW,222,1.0,7.0,47,0.00,,,0.00,weatherlink.com 1.10,2013-10-09 19:13:00,
2013-10-09 15:28:00,57.2,39.0,30.33,SSW,211,1.0,7.0,51,0.00,,,0.00,weatherlink.com 1.10,2013-10-09 19:28:00,
2013-10-09 15:43:00,56.3,39.0,30.32,SSW,213,1.0,7.0,52,0.00,,,0.00,weatherlink.com 1.10,2013-10-09 19:43:00,
2013-10-09 15:58:00,56.0,38.0,30.32,SSW,213,4.0,8.0,52,0.00,,,0.00,weatherlink.com 1.10,2013-10-09 19:58:00,
2013-10-09 16:13:00,55.5,39.0,30.32,SW,230,0.0,5.0,55,0.00,,,0.00,weatherlink.com 1.10,2013-10-09 20:13:00,
2013-10-09 16:43:00,54.6,40.0,30.31,SSW,213,1.0,3.0,58,0.00,,,0.00,weatherlink.com 1.10,2013-10-09 20:43:00,
2013-10-09 16:58:00,54.5,40.0,30.31,SW,225,1.0,5.0,59,0.00,,,0.00,weatherlink.com 1.10,2013-10-09 20:58:00,
2013-10-09 17:13:00,53.8,40.0,30.31,SSW,198,2.0,4.0,60,0.00,,,0.00,weatherlink.com 1.10,2013-10-09 21:13:00,
2013-10-09 17:28:00,52.6,41.0,30.31,SW,228,1.0,6.0,65,0.00,,,0.00,weatherlink.com 1.10,2013-10-09 21:28:00,
2013-10-09 17:43:00,51.6,42.0,30.31,SW,228,0.0,1.0,69,0.00,,,0.00,weatherlink.com 1.10,2013-10-09 21:43:00,
2013-10-09 17:58:00,50.3,42.0,30.31,SW,228,0.0,1.0,72,0.00,,,0.00,weatherlink.com 1.10,2013-10-09 21:58:00,
2013-10-09 18:13:00,49.0,41.0,30.31,SW,228,0.0,1.0,74,0.00,,,0.00,weatherlink.com 1.10,2013-10-09 22:13:00,
2013-10-09 18:29:00,47.7,40.0,30.31,SW,228,0.0,0.0,76,0.00,,,0.00,weatherlink.com 1.10,2013-10-09 22:29:00,
2013-10-09 18:44:00,46.7,40.0,30.30,SW,228,0.0,0.0,78,0.00,,,0.00,weatherlink.com 1.10,2013-10-09 22:44:00,
2013-10-09 18:59:00,45.7,40.0,30.30,SW,228,0.0,0.0,80,0.00,,,0.00,weatherlink.com 1.10,2013-10-09 22:59:00,
2013-10-09 19:14:00,45.0,40.0,30.30,SW,228,0.0,0.0,82,0.00,,,0.00,weatherlink.com 1.10,2013-10-09 23:14:00,
2013-10-09 19:29:00,44.3,40.0,30.30,SW,228,0.0,0.0,84,0.00,,,0.00,weatherlink.com 1.10,2013-10-09 23:29:00,
2013-10-09 19:44:00,44.3,40.0,30.30,SW,228,0.0,0.0,85,0.00,,,0.00,weatherlink.com 1.10,2013-10-09 23:44:00,
2013-10-09 19:59:00,44.0,40.0,30.30,SW,228,0.0,1.0,85,0.00,,,0.00,weatherlink.com 1.10,2013-10-09 23:59:00,
2013-10-09 20:14:00,43.8,40.0,30.30,SW,228,0.0,0.0,86,0.00,,,0.00,weatherlink.com 1.10,2013-10-10 00:14:00,
2013-10-09 20:29:00,43.4,40.0,30.30,SW,228,0.0,0.0,86,0.00,,,0.00,weatherlink.com 1.10,2013-10-10 00:29:00,
2013-10-09 20:44:00,43.1,40.0,30.30,SW,228,0.0,1.0,87,0.00,,,0.00,weatherlink.com 1.10,2013-10-10 00:44:00,
2013-10-09 20:59:00,42.9,40.0,30.30,SW,228,0.0,0.0,88,0.00,,,0.00,weatherlink.com 1.10,2013-10-10 00:59:00,
2013-10-09 21:14:00,42.8,40.0,30.30,SW,228,0.0,0.0,88,0.00,,,0.00,weatherlink.com 1.10,2013-10-10 01:14:00,
2013-10-09 21:29:00,42.5,40.0,30.30,SW,228,0.0,0.0,89,0.00,,,0.00,weatherlink.com 1.10,2013-10-10 01:29:00,
2013-10-09 21:44:00,42.4,39.0,30.30,SW,228,0.0,0.0,89,0.00,,,0.00,weatherlink.com 1.10,2013-10-10 01:44:00,
2013-10-09 21:59:00,42.0,39.0,30.31,SW,228,0.0,0.0,89,0.00,,,0.00,weatherlink.com 1.10,2013-10-10 01:59:00,
2013-10-09 22:14:00,41.8,39.0,30.30,SW,228,0.0,0.0,90,0.00,,,0.00,weatherlink.com 1.10,2013-10-10 02:14:00,
2013-10-09 22:29:00,41.5,39.0,30.30,SW,228,0.0,0.0,90,0.00,,,0.00,weatherlink.com 1.10,2013-10-10 02:29:00,
2013-10-09 22:44:00,41.3,39.0,30.30,SW,228,0.0,0.0,91,0.00,,,0.00,weatherlink.com 1.10,2013-10-10 02:44:00,
2013-10-09 22:59:00,41.5,39.0,30.30,SW,228,0.0,0.0,90,0.00,,,0.00,weatherlink.com 1.10,2013-10-10 02:59:00,
2013-10-09 23:14:00,41.5,39.0,30.30,SW,228,0.0,0.0,90,0.00,,,0.00,weatherlink.com 1.10,2013-10-10 03:14:00,
2013-10-09 23:29:00,41.2,39.0,30.30,SW,228,0.0,0.0,91,0.00,,,0.00,weatherlink.com 1.10,2013-10-10 03:29:00,
2013-10-09 23:44:00,40.9,39.0,30.30,SW,228,0.0,0.0,91,0.00,,,0.00,weatherlink.com 1.10,2013-10-10 03:44:00,
2013-10-09 23:59:00,40.7,39.0,30.30,SW,228,0.0,1.0,92,0.00,,,0.00,weatherlink.com 1.10,2013-10-10 03:59:00,